Weather History for Lee's Summit, MO

Change the Weather History Date:

Saturday, June 15, 2013

  Actual Average (KMKC) Record (KMKC)
Temperature  
Mean Temperature 77 °F -  
Max Temperature 86 °F 80 °F 91 °F (2006)
Min Temperature 68 °F 63 °F 57 °F (1999)
Cooling Degree Days 12    
Growing Degree Days 27 (Base 50)    
Moisture  
Dew Point 67 °F    
Average Humidity 78    
Maximum Humidity 93    
Minimum Humidity 63    
Precipitation  
Precipitation 1.01 in - - ()
Sea Level Pressure  
Sea Level Pressure 29.96 in    
Wind  
Wind Speed 11 mph (SSE)    
Max Wind Speed 20 mph    
Max Gust Speed 31 mph    
Visibility 8 miles    
Events Rain , Thunderstorm    
Averages and records for this station are not official NWS values.
T = Trace of Precipitation, MM = Missing Value Source: NWS Daily Summary

Daily Weather History Graph

Daily Weather History Graph

Search for Another Location

Airport:

Trip Planner

Search our weather history database for the weather conditions in past years. The results will help you decide how hot, cold, wet, or windy it might be!

Date:

Astronomy

Jun. 15, 2013 Rise Set
Actual Time 5:51 AM CDT 8:44 PM CDT
Civil Twilight 5:19 AM CDT 9:16 PM CDT
Nautical Twilight 4:38 AM CDT 9:57 PM CDT
Astronomical Twilight 3:52 AM CDT 10:43 PM CDT
Moon 12:23 PM CDT (6/15) 12:23 AM CDT (6/15)
Length of Visible Light 15h 57m
Length of Day
14h 53m
Waxing Crescent, 40% of the Moon is Illuminated
Jun 15
Waxing Crescent
Jun 16
First Quarter
Jun 23
Full
Jun 29
Last Quarter
Jul 8
New

Hourly Weather History & Observations

Time (CDT) Temp. Heat Index Dew Point Humidity Pressure Visibility Wind Dir Wind Speed Gust Speed Precip Events Conditions
12:53 AM 77.0 °F - 66.9 °F 71% 29.92 in 10.0 mi South 15.0 mph 20.7 mph N/A   Clear
1:53 AM 78.1 °F - 66.9 °F 68% 29.92 in 10.0 mi South 10.4 mph 19.6 mph N/A   Clear
2:53 AM 77.0 °F - 66.9 °F 71% 29.93 in 10.0 mi South 6.9 mph - N/A   Clear
3:53 AM 75.9 °F - 66.9 °F 74% 29.95 in 10.0 mi ESE 5.8 mph - N/A   Clear
4:39 AM 75.2 °F - 66.2 °F 73% 30.00 in 10.0 mi ESE 8.1 mph 17.3 mph N/A   Overcast
4:53 AM 73.9 °F - 64.9 °F 73% 29.96 in 10.0 mi East 10.4 mph - N/A   Overcast
5:21 AM 73.4 °F - 64.4 °F 73% 29.98 in 10.0 mi SE 10.4 mph - N/A   Scattered Clouds
5:53 AM 73.9 °F - 63.0 °F 68% 29.95 in 10.0 mi SSE 9.2 mph - N/A   Clear
6:53 AM 73.0 °F - 63.0 °F 71% 29.96 in 10.0 mi SSE 8.1 mph - N/A   Clear
7:53 AM 73.9 °F - 66.0 °F 76% 29.97 in 10.0 mi SE 11.5 mph 16.1 mph N/A   Clear
8:53 AM 75.9 °F - 68.0 °F 76% 29.96 in 10.0 mi South 10.4 mph 16.1 mph N/A   Clear
9:53 AM 78.1 °F - 69.1 °F 74% 29.95 in 10.0 mi South 12.7 mph 18.4 mph N/A   Clear
10:53 AM 82.0 °F 87.4 °F 73.0 °F 74% 29.94 in 10.0 mi SSW 12.7 mph 21.9 mph N/A   Clear
11:53 AM 84.0 °F 90.2 °F 73.0 °F 69% 29.94 in 10.0 mi South 9.2 mph - N/A   Clear
12:53 PM 84.0 °F 91.2 °F 73.9 °F 72% 29.95 in 10.0 mi SW 12.7 mph 18.4 mph N/A   Partly Cloudy
1:53 PM 86.0 °F 93.8 °F 73.9 °F 67% 29.92 in 10.0 mi Variable 5.8 mph - N/A   Partly Cloudy
2:53 PM 84.9 °F 90.1 °F 71.1 °F 63% 29.89 in 10.0 mi SSE 5.8 mph - N/A   Scattered Clouds
3:09 PM 82.4 °F 87.2 °F 71.6 °F 70% 29.90 in 1.2 mi SE 8.1 mph - 0.00 in Rain , Thunderstorm Light Thunderstorms and Rain
3:18 PM 80.6 °F 84.6 °F 71.6 °F 74% 29.91 in 3.0 mi South 13.8 mph 20.7 mph 0.02 in Rain , Thunderstorm Light Thunderstorms and Rain
3:41 PM 71.6 °F - 60.8 °F 69% 29.95 in 1.2 mi ESE 9.2 mph 25.3 mph 0.08 in Rain , Thunderstorm Light Thunderstorms and Rain
3:53 PM 69.1 °F - 63.0 °F 81% 29.94 in 1.2 mi NE 5.8 mph - 0.26 in Rain , Thunderstorm Heavy Thunderstorms and Rain
4:23 PM 68.0 °F - 64.4 °F 88% 30.00 in 3.0 mi West 19.6 mph 31.1 mph 0.25 in Rain , Thunderstorm Light Thunderstorms and Rain
4:53 PM 69.1 °F - 66.0 °F 90% 30.02 in 6.0 mi SSW 15.0 mph 21.9 mph 0.32 in Rain , Thunderstorm Rain
5:02 PM 69.8 °F - 66.2 °F 88% 30.04 in 4.0 mi SSW 11.5 mph - 0.03 in Rain Rain
5:18 PM 69.8 °F - 66.2 °F 88% 30.03 in 3.0 mi SSW 12.7 mph - 0.10 in Rain , Thunderstorm Thunderstorms and Rain
5:44 PM 69.8 °F - 66.2 °F 88% 30.02 in 3.0 mi South 16.1 mph 25.3 mph 0.23 in Rain , Thunderstorm Thunderstorms and Rain
5:53 PM 69.1 °F - 66.0 °F 90% 30.01 in 3.0 mi SSW 13.8 mph 19.6 mph 0.28 in Rain , Thunderstorm Thunderstorms and Rain
6:05 PM 69.8 °F - 66.2 °F 88% 30.02 in 5.0 mi SSW 11.5 mph - 0.03 in Rain Rain
6:53 PM 68.0 °F - 66.0 °F 93% 29.97 in 10.0 mi SE 8.1 mph - 0.11 in Rain Light Rain
7:53 PM 68.0 °F - 64.9 °F 90% 29.92 in 10.0 mi SSE 11.5 mph 19.6 mph 0.03 in   Mostly Cloudy
8:53 PM 68.0 °F - 64.0 °F 87% 29.91 in 10.0 mi South 12.7 mph 23.0 mph N/A   Mostly Cloudy
9:53 PM 68.0 °F - 64.0 °F 87% 29.91 in 10.0 mi SSE 6.9 mph - 0.01 in   Overcast
10:53 PM 68.0 °F - 64.0 °F 87% 29.96 in 10.0 mi North 8.1 mph - N/A   Overcast
11:53 PM 68.0 °F - 64.9 °F 90% 29.95 in 10.0 mi ESE 4.6 mph - N/A   Overcast